Lapse_Rate
5.7 6.5 6.5 6.5 6.5 6.5 6.5 6.5 6.5 6.5 6.5 6.5 6.5 6.5 6.5 5.6 4.7 3.7 2.0 1.8 2.6 3.2 2.8 2.3 3.0 3.2 4.6 4.7 4.6 4.5 4.2 4.4 4.5 4.0 3.8 3.9 4.2 4.5 5.2 6.5 7.8 7.8 6.9 6.4
6.5 6.5 6.5 6.5 6.5 6.5 6.5 6.5 6.5 6.5 6.5 6.5 6.5 6.5 6.5 6.3 5.8 3.8 2.6 2.0 1.7 1.4 2.3 2.5 2.5 2.4 3.1 3.4 4.9 4.9 5.0 4.2 4.5 4.3 4.1 4.2 4.1 4.4 5.0 5.7 6.4 6.7 6.3 6.0
6.5 6.5 6.5 6.5 6.5 6.5 6.5 6.5 6.5 6.5 6.5 6.5 6.5 6.5 6.5 6.4 5.8 4.3 2.9 1.7 0.8 1.5 1.5 1.8 2.5 2.6 2.2 3.0 3.5 5.2 5.1 4.6 4.5 4.6 4.5 4.8 4.6 4.2 4.5 4.2 4.1 5.2 5.7 5.2
6.5 6.5 6.5 6.5 6.5 6.5 6.5 6.5 6.5 6.5 6.5 6.5 6.5 6.5 6.5 6.5 6.5 6.4 4.2 1.6 1.0 1.4 1.4 1.3 1.8 1.6 0.7 0.5 1.5 2.9 5.7 5.2 4.9 4.9 5.0 6.2 4.7 5.1 3.9 3.6 3.2 2.9 4.0 3.6
6.5 6.5 6.5 6.5 6.5 6.5 6.5 6.5 6.5 6.5 6.5 6.5 6.5 6.5 6.5 6.5 6.5 6.5 5.4 2.5 2.1 1.2 0.8 0.7 0.1 -0.2 -0.1 -0.8 -0.1 0.9 4.6 5.9 5.9 5.8 4.9 5.3 5.0 3.5 3.0 2.8 2.1 1.7 2.4 3.5
6.5 5.5 6.5 6.5 6.5 6.5 6.5 6.5 6.5 6.5 6.5 6.5 6.5 6.5 6.5 6.5 6.5 6.5 5.9 3.4 2.1 1.8 1.0 0.2 -0.4 -0.5 -0.4 -1.4 -0.7 0.3 2.4 4.4 5.7 5.8 5.4 4.6 4.2 3.5 3.2 2.1 1.9 1.4 1.2 1.7
6.5 6.5 6.5 6.3 6.5 6.5 6.5 6.5 6.5 6.5 6.5 6.5 6.5 6.5 6.5 6.5 6.5 6.5 6.4 4.4 1.9 0.4 0.3 0.6 0.6 0.2 0.1 -0.1 -0.4 0.4 1.3 1.1 2.7 4.1 4.5 4.4 4.2 4.5 3.0 1.9 2.1 1.9 2.0 1.6
6.5 6.5 6.5 6.5 6.5 6.5 6.5 6.5 6.5 6.5 6.5 6.5 6.5 6.5 6.5 6.5 5.7 4.4 5.5 3.6 2.8 1.6 1.2 1.1 1.0 0.4 0.2 -0.1 -0.3 0.9 0.8 0.8 1.0 1.7 1.5 2.1 2.7 2.5 2.8 2.8 2.6 2.3 1.8 1.4
6.5 6.5 6.5 6.5 6.5 6.5 6.5 6.5 6.5 6.5 6.5 6.5 6.5 6.5 6.5 6.5 6.5 6.1 5.9 5.3 4.1 2.3 1.8 1.9 2.1 2.1 1.6 0.9 0.4 1.5 1.0 0.8 0.6 0.7 0.8 1.1 1.7 1.9 1.9 1.8 1.8 2.1 1.8 2.0
6.5 6.5 6.5 6.5 6.4 6.5 6.5 6.5 6.5 6.5 6.5 6.5 6.5 6.5 6.5 6.5 6.5 6.5 6.4 6.0 3.9 3.1 2.8 3.2 4.2 4.5 4.2 3.7 3.8 2.9 2.0 1.1 0.7 0.5 1.0 1.1 1.0 1.5 1.6 1.9 1.8 1.6 1.8 1.7
6.5 6.5 6.5 6.5 6.5 6.5 6.5 6.5 6.5 6.5 6.5 6.5 6.5 6.5 6.5 6.5 6.5 6.5 6.5 6.0 4.8 4.2 3.4 4.5 5.0 4.8 4.5 4.1 4.2 3.6 2.6 1.4 1.1 1.3 1.6 1.0 0.9 1.3 1.5 1.1 3.0 1.8 1.9 1.1
6.5 6.5 6.5 6.5 6.5 6.5 6.5 6.5 6.5 6.5 6.5 6.5 6.5 6.5 6.5 6.5 6.5 6.1 6.2 5.9 4.7 4.2 3.9 5.0 5.4 4.8 4.2 3.9 3.8 3.5 3.0 2.5 2.1 1.8 1.3 1.1 0.9 1.3 1.3 1.5 1.9 1.4 1.1 -0.3
6.5 6.5 6.5 6.5 6.5 6.5 6.5 6.5 6.5 6.5 6.5 6.5 6.5 6.5 6.5 6.6 6.6 6.2 6.3 5.7 5.2 4.2 4.3 4.1 5.6 5.1 4.4 3.8 3.8 3.1 2.8 2.4 2.0 1.5 1.3 1.0 1.0 1.3 1.5 1.1 0.4 0.0 -1.2 -0.9
6.2 6.5 6.5 6.5 6.5 6.5 6.5 6.5 6.5 6.5 6.5 6.5 6.5 6.5 6.5 6.5 6.5 6.3 6.3 6.0 5.4 4.9 4.9 4.5 4.2 4.8 4.2 3.7 3.7 3.5 2.7 2.4 1.7 1.5 1.4 0.9 0.7 0.6 -0.0 -1.2 -1.4 -1.0 -0.7 -1.0
6.5 6.5 6.5 6.5 6.5 6.5 6.5 6.5 6.5 6.5 6.5 6.5 6.5 6.5 6.5 6.5 6.5 6.4 6.4 6.6 6.3 5.5 4.9 4.9 4.3 3.7 3.4 3.4 3.5 3.0 2.2 2.0 1.9 1.3 0.6 -0.6 -1.1 -1.4 -1.5 -1.3 -1.2 -1.2 -1.0 -0.7
6.5 6.5 6.5 6.5 6.5 6.5 6.5 6.5 6.5 6.5 6.5 6.5 6.5 6.5 6.5 5.6 5.7 6.2 6.5 6.6 6.4 6.3 5.8 5.4 4.8 4.6 4.4 3.8 2.9 2.5 1.4 0.7 0.5 -0.1 -0.6 -0.8 -0.8 -0.8 -1.2 -1.0 -1.1 -1.0 -0.9 -0.7
6.5 6.5 6.5 6.5 6.5 6.5 6.5 6.5 6.5 6.5 6.5 6.5 6.5 6.5 6.5 6.5 6.5 6.3 6.4 6.5 6.6 6.6 5.9 5.0 4.9 5.1 4.5 3.6 2.8 1.7 0.9 0.6 0.5 -0.1 -0.3 -0.4 -0.3 -0.5 -0.7 -0.8 -0.8 -0.8 -0.7 -0.4
6.5 6.5 6.5 6.5 6.5 6.5 6.5 6.5 6.5 6.5 6.5 6.5 6.5 6.5 6.5 6.1 5.8 5.8 5.6 6.0 6.1 5.8 5.4 5.3 5.3 4.8 4.0 2.7 2.2 1.4 1.3 0.9 0.5 -0.0 -0.1 -0.2 -0.3 -0.4 -0.5 -0.5 -0.6 -0.5 -0.4 -0.0
6.5 6.5 6.5 6.5 6.5 6.5 6.5 6.5 6.5 6.5 6.5 6.5 6.5 6.5 6.3 4.3 4.8 5.9 5.1 5.7 5.4 5.5 5.4 5.1 4.6 3.6 2.8 2.9 2.4 1.6 1.3 0.6 0.4 -0.2 -0.4 -0.2 -0.2 -0.3 -0.3 -0.3 -0.3 -0.1 0.1 0.4
6.5 6.5 6.5 6.5 6.5 6.5 6.5 6.5 6.0 6.5 6.5 6.5 6.5 6.5 6.5 4.8 6.5 6.5 4.2 5.0 4.9 5.3 4.9 4.2 3.3 2.8 2.6 2.7 2.3 1.6 1.0 0.7 0.3 0.1 0.1 0.3 0.3 0.3 0.2 0.3 0.4 0.6 0.9 1.5
6.5 6.5 6.5 6.5 6.5 6.5 6.5 6.5 6.1 6.5 6.5 6.2 5.7 5.8 6.0 6.5 5.1 0.8 3.2 4.3 4.3 4.4 3.3 3.0 2.9 2.6 2.4 2.6 2.3 1.2 0.8 0.7 0.7 0.9 0.8 0.7 0.7 0.6 0.6 0.6 1.0 1.1 1.3 1.4
6.5 6.5 6.5 6.5 6.5 6.5 6.3 6.4 6.5 6.4 5.2 5.3 5.1 3.7 4.3 2.6 2.1 3.6 4.3 4.3 3.0 3.2 4.0 3.1 2.3 2.2 2.5 2.3 1.6 0.9 1.1 0.9 1.3 1.5 1.2 0.9 1.0 2.1 1.7 1.2 1.2 1.3 1.4 1.5
6.5 6.5 6.5 6.5 6.5 6.5 5.8 6.1 5.6 5.3 5.4 4.7 4.1 2.8 2.4 4.2 5.2 5.5 4.3 4.3 4.1 3.3 3.3 2.6 1.9 2.3 2.5 2.1 2.0 1.0 0.8 1.4 1.6 1.8 1.5 1.3 1.6 2.0 1.7 1.4 1.8 1.9 1.8 1.7
6.5 6.5 6.5 6.5 6.5 6.5 6.1 5.7 5.1 4.6 4.3 3.7 3.6 3.9 3.2 4.9 4.8 5.2 5.3 4.6 3.8 3.6 2.7 2.8 2.4 2.3 2.3 2.0 1.6 0.9 1.6 2.2 1.9 1.6 1.7 2.0 2.1 1.5 1.9 2.2 2.3 2.2 2.0 2.2
6.6 6.5 6.5 6.5 6.5 6.3 6.2 6.3 5.7 5.1 4.7 4.4 4.9 4.9 3.6 2.7 5.6 4.4 5.1 5.0 3.8 3.0 3.3 2.9 2.6 2.7 2.4 2.3 1.8 1.8 1.8 2.3 2.4 2.7 2.4 1.5 1.7 1.7 1.8 2.2 2.4 3.1 3.3 3.9
6.6 6.5 6.5 6.5 6.7 6.7 6.5 5.9 6.2 4.9 4.9 5.0 3.8 5.3 5.9 4.6 5.4 5.0 5.1 4.4 3.7 3.5 3.7 3.1 2.7 2.2 2.2 1.9 1.6 1.8 2.3 3.0 3.0 1.8 2.0 2.3 2.3 2.0 2.5 2.6 2.9 4.2 4.6 5.2
Wind_Speed
4 5 15 9 9 6 6 6 6 7 8 7 10 7 6 5 5 8 9 9 9 9 4 8 7 7 11 14 14 13 10 8 6 3 4 3 4 2 2 4 8 12 13 12
4 15 8 8 7 8 5 7 5 2 4 5 5 7 7 7 5 7 10 10 10 7 6 6 7 7 7 7 14 13 13 10 7 5 3 4 4 2 3 8 12 16 14 12
9 5 8 9 7 9 7 7 5 5 5 3 7 4 4 5 4 5 6 8 8 12 9 6 5 6 6 6 5 13 13 12 9 8 4 4 4 4 3 3 4 7 13 10
4 8 20 9 11 10 15 9 6 10 7 5 6 5 7 7 9 7 8 9 9 9 7 6 6 4 5 3 3 1 14 13 10 10 7 9 4 5 3 4 3 6 12 10
12 14 19 19 20 8 7 6 10 8 10 6 4 3 6 12 8 8 10 10 9 8 10 9 8 6 4 5 3 2 7 15 13 12 9 7 8 4 4 5 7 6 9 11
9 8 11 13 7 9 6 7 6 5 3 0 7 8 5 8 12 17 6 8 10 9 8 7 6 5 3 4 4 4 6 7 12 11 11 10 9 9 8 6 6 4 4 6
5 4 3 10 8 4 7 9 2 2 0 5 4 4 8 5 12 13 19 15 10 10 9 7 7 5 2 3 2 3 5 6 6 8 9 9 11 13 12 10 7 7 4 3
6 4 8 7 17 10 16 13 6 8 5 4 0 7 6 1 6 6 13 14 13 11 8 7 7 6 5 5 5 5 7 9 7 10 10 8 10 7 7 7 6 5 5 4
8 4 4 5 4 11 7 11 7 6 1 4 5 4 2 2 6 8 15 16 13 11 10 9 7 6 6 5 6 6 9 8 8 9 9 9 8 10 9 10 9 6 6 7
6 5 3 3 5 2 14 8 6 1 8 5 4 5 7 5 8 7 13 15 12 11 11 9 8 8 6 6 7 8 8 10 10 10 10 10 10 10 10 9 9 8 7 9
6 5 2 4 8 15 4 12 3 5 5 9 3 6 7 16 15 20 18 16 16 15 13 10 10 9 9 8 9 10 10 11 11 11 11 11 11 10 10 10 4 8 8 8
7 6 6 11 4 5 3 10 7 8 12 3 5 6 3 1 10 12 13 13 12 13 12 10 11 11 10 10 9 10 10 11 11 11 11 11 11 10 10 9 7 11 6 11
7 4 5 4 4 3 12 10 20 4 4 8 7 5 4 3 7 14 18 15 15 15 13 10 11 11 10 10 9 10 10 11 10 11 11 10 10 9 8 8 7 8 7 7
6 4 7 12 19 6 2 11 3 5 3 8 12 7 4 5 9 13 15 18 17 16 16 13 11 11 11 10 10 10 10 9 10 11 10 10 9 9 7 7 6 6 8 6
17 4 5 6 11 11 9 9 16 11 20 8 9 11 11 15 15 17 14 15 17 17 17 15 13 11 10 11 10 10 10 10 10 10 10 8 7 7 7 7 6 6 6 6
6 6 1 3 9 16 12 18 13 18 11 20 7 6 2 5 11 12 18 20 20 19 18 16 15 14 14 13 11 10 9 9 9 9 9 7 7 7 6 6 6 6 6 6
4 8 7 9 1 5 1 19 21 16 15 14 13 13 7 6 17 20 20 21 21 19 19 18 17 15 13 13 12 11 10 9 9 9 8 8 7 7 6 6 6 6 6 5
5 7 4 3 4 5 7 12 15 20 16 16 12 7 12 11 16 14 18 23 22 22 21 19 17 15 14 11 11 11 11 10 10 9 8 7 7 7 6 6 6 5 4 5
18 11 2 5 3 4 3 5 16 13 13 7 11 6 4 6 6 1 10 16 18 19 18 16 16 16 15 14 13 13 11 10 10 8 8 7 6 7 6 6 6 4 4 4
6 5 8 4 5 11 10 4 4 4 11 10 17 11 10 9 5 6 17 14 16 16 15 16 17 16 15 13 13 14 11 10 9 8 7 6 6 6 6 5 5 3 3 3
5 3 8 4 4 6 6 4 2 9 12 4 10 13 16 10 8 7 18 15 18 16 19 19 18 16 14 13 13 12 11 10 8 8 7 6 6 6 5 5 4 3 4 4
7 6 3 3 3 7 7 3 9 3 2 3 1 7 8 7 12 17 19 20 20 21 20 19 16 15 12 12 13 12 11 8 8 8 8 7 6 5 4 5 4 4 4 4
3 0 4 5 4 2 4 3 5 4 3 4 2 6 16 17 17 18 18 20 18 20 17 16 17 15 11 10 12 13 8 8 8 8 7 6 6 4 4 4 3 3 3 3
6 9 2 1 3 3 6 5 6 5 4 3 6 13 18 20 19 20 18 17 16 16 16 16 18 15 12 10 9 9 8 8 8 8 7 5 4 5 4 3 3 2 3 2
5 9 7 1 4 6 5 6 4 6 7 10 9 11 18 23 18 20 18 17 16 16 15 15 16 14 13 12 10 8 7 8 8 6 5 6 4 4 3 3 2 2 2 3
8 7 5 3 9 9 4 8 3 6 7 8 16 16 14 18 19 19 17 16 15 16 15 15 15 15 12 12 10 8 7 6 6 7 5 4 3 3 3 2 2 6 8 10
Wind_Direction
204 146 199 181 172 154 154 187 174 184 186 139 202 179 214 193 158 169 177 174 166 143 124 102 96 117 165 166 167 171 164 162 146 139 132 132 153 139 110 160 152 131 120 111
151 212 178 170 176 202 196 174 200 65 180 133 182 220 198 201 205 179 172 170 160 140 132 106 107 100 101 136 168 165 166 162 159 151 145 141 152 147 130 111 107 122 119 118
183 180 169 174 187 195 215 174 182 161 112 60 118 286 194 225 191 150 162 168 152 159 153 137 120 115 107 115 127 169 168 165 163 162 149 142 111 93 88 88 101 117 121 116
210 190 180 185 199 179 217 186 156 147 126 189 162 243 208 188 202 187 158 151 157 160 148 149 144 103 87 77 69 76 170 168 167 166 164 173 151 149 156 133 116 103 113 102
203 171 185 190 195 158 210 144 147 166 171 126 178 101 269 178 201 203 202 178 167 155 151 153 145 136 85 47 36 351 198 169 172 174 163 150 143 126 116 108 102 94 95 100
182 168 174 188 176 169 159 99 54 71 105 254 200 167 253 190 198 205 184 180 174 164 140 123 117 110 81 40 31 21 119 159 169 163 154 146 140 135 130 127 118 116 104 93
158 182 125 160 156 138 145 144 59 11 316 211 204 169 225 198 221 199 186 179 160 138 135 138 137 142 147 114 84 70 114 88 105 132 138 146 143 152 148 142 141 139 118 90
143 194 171 177 189 173 176 171 152 174 160 195 37 222 240 309 299 220 174 151 140 143 148 149 154 159 166 154 128 106 104 96 92 105 100 105 116 125 125 127 123 116 113 101
156 200 180 167 128 155 193 198 168 108 56 126 193 259 290 27 51 107 138 147 154 151 147 147 149 153 154 146 125 117 99 95 94 98 101 93 99 108 111 106 101 109 107 103
155 115 212 175 97 71 187 147 197 353 160 201 250 215 208 184 175 158 159 161 154 147 143 144 148 142 134 125 110 97 106 108 103 100 101 104 105 102 106 102 108 98 91 89
144 118 225 128 203 183 137 193 168 129 153 203 170 253 205 192 183 181 181 171 157 150 147 148 138 137 131 123 123 122 118 114 107 109 110 110 106 102 99 96 101 94 93 89
197 126 160 199 310 192 150 179 167 196 212 209 166 246 354 347 199 171 162 151 144 141 141 141 141 139 138 133 127 126 123 119 120 115 113 106 105 104 102 99 94 91 90 81
178 164 115 107 357 313 205 202 201 167 128 203 177 257 360 349 143 164 158 157 151 146 143 139 145 148 145 141 134 125 122 118 116 114 112 105 101 98 96 94 90 89 85 84
175 164 167 193 204 119 179 202 165 165 137 190 223 196 255 206 168 161 165 161 157 153 155 156 152 154 149 143 135 127 116 112 112 108 107 105 103 104 100 95 89 90 87 79
230 200 169 189 160 174 170 180 201 192 215 187 199 201 199 196 189 180 158 153 155 160 165 166 162 154 144 136 128 121 117 115 114 110 107 107 105 103 103 97 91 84 76 75
202 225 55 264 189 188 190 197 196 221 223 226 194 230 318 135 120 152 167 167 173 172 168 165 161 156 150 143 135 128 120 114 114 113 112 110 104 98 94 93 93 83 71 67
164 163 171 236 264 122 24 194 200 213 217 204 211 214 158 165 174 176 179 182 177 172 169 167 163 156 150 147 141 134 128 121 114 115 113 112 111 104 96 90 81 75 71 69
229 146 126 214 132 203 223 197 196 207 215 211 219 190 183 184 194 190 186 174 175 172 170 165 159 148 145 133 126 122 122 120 119 114 112 109 105 102 98 93 85 73 62 52
211 183 171 170 211 296 332 201 195 189 235 199 200 192 172 106 83 87 175 186 178 169 163 158 148 139 136 136 132 125 121 120 119 117 113 109 108 106 102 94 85 66 61 49
105 116 190 157 178 206 228 238 220 102 235 195 193 178 150 139 168 223 178 167 156 153 148 141 136 131 130 134 132 129 127 122 119 117 113 108 105 104 95 90 82 62 54 40
143 151 199 175 202 278 245 206 120 163 239 192 200 175 161 186 202 145 146 140 143 140 135 131 131 132 131 130 126 121 121 121 124 118 113 105 103 100 95 86 77 61 49 34
167 154 178 190 188 257 3 84 169 260 320 320 284 168 152 107 112 130 133 132 128 129 132 129 124 122 121 123 123 120 119 126 120 118 112 107 101 93 88 90 72 56 44 33
177 142 183 185 188 29 346 348 312 295 289 326 116 137 128 122 120 120 121 124 126 126 124 123 121 113 108 111 122 121 127 121 116 111 108 102 97 93 99 82 70 64 47 36
12 19 75 149 5 12 353 344 4 359 354 31 107 124 123 121 121 119 118 117 118 119 118 120 116 112 106 99 99 107 116 116 115 112 108 109 119 81 63 60 55 39 25 354
349 331 339 329 3 322 11 1 18 25 46 72 71 108 123 121 121 121 119 117 116 116 118 118 116 115 111 110 103 101 102 110 105 113 114 86 76 72 59 40 29 14 350 336
348 359 350 300 326 314 305 321 4 84 74 92 107 103 99 111 117 117 114 117 117 115 116 112 114 114 114 110 104 95 87 109 112 91 83 77 68 54 50 49 11 3 350 341